Regional Weather Roundup
Issued by NWS

Home | Current Version | Previous Version | Text Only | Print | Product List | Glossary On
Versions: 1 2 3 4 5 6 7 8 9 10 11 12 13 14 15 16 17 18 19 20 21 22 23 24 25 26 27 28 29 30 31 32 33 34 35 36 37 38 39 40 41 42 43 44 45 46
000
ASUS46 KSEW 261810
RWRWA

WASHINGTON REGIONAL WEATHER ROUNDUP
NATIONAL WEATHER SERVICE SEATTLE WA
1000 AM PST FRI DEC 26 2014

NOTE:"FAIR" INDICATES FEW OR NO CLOUDS BELOW 12,000 FEET WITH NO
SIGNIFICANT WEATHER AND/OR OBSTRUCTIONS TO VISIBILITY.

WAZ505-507>509-261900-
SEATTLE, TACOMA, EVERETT, AND VICINITY

CITY           SKY/WX    TMP DP  RH WIND       PRES   REMARKS
EVERETT        CLOUDY    38  36  92 SE6       30.37R FOG
6HR MIN TEMP:  38; 6HR MAX TEMP:  38;

BOEING FIELD   CLOUDY    40  35  83 SE6       30.39R HAZE
6HR MIN TEMP:  39; 6HR MAX TEMP:  42;

RENTON         CLOUDY    36  35  96 CALM      30.39R
6HR MIN TEMP:  36; 6HR MAX TEMP:  39;

SEATAC AIRPORT FOG       35  33  92 SE3       30.38R VSB 1/4
6HR MIN TEMP:  35; 6HR MAX TEMP:  39;

JBLM-MCCHORD   FOG       36  36 100 SE5       30.38R VSB 1/4
6HR MIN TEMP:  34; 6HR MAX TEMP:  38;

PUYALLUP       NOT AVBL
BREMERTON      CLOUDY    37  37 100 CALM      30.40R
6HR MIN TEMP:  36; 6HR MAX TEMP:  37;

JBLM-FT LEWIS  CLOUDY    35  35  99 E3        30.37S
6HR MIN TEMP:  32; 6HR MAX TEMP:  37;

TACOMA NARROWS CLOUDY    40  36  86 CALM      30.37S
6HR MIN TEMP:  37; 6HR MAX TEMP:  40;

$$

WAZ001-503-506-510-514-515-261900-
NORTH INTERIOR

CITY           SKY/WX    TMP DP  RH WIND       PRES   REMARKS
BELLINGHAM     CLOUDY    40  37  89 CALM      30.37R
6HR MIN TEMP:  37; 6HR MAX TEMP:  41; 6HR PCP:  0.02;

FRIDAY HARBOR  CLOUDY    43  39  86 E5        30.38R
6HR MIN TEMP:  41; 6HR MAX TEMP:  43;

EASTSOUND      PTSUNNY   41  41 100 CALM      30.36R
PORT ANGELES   CLOUDY    42  38  85 SW5       30.36R
6HR MIN TEMP:  39; 6HR MAX TEMP:  42; 6HR PCP:  0.01;

NAS WHIDBEY    CLOUDY    44  39  82 E5        30.38R
6HR MIN TEMP:  38; 6HR MAX TEMP:  44;

ARLINGTON      CLOUDY    39  36  87 CALM      30.40R
6HR MIN TEMP:  36; 6HR MAX TEMP:  39;

BURLINGTON     CLOUDY    39  39 100 CALM      30.39S
$$

WAZ020-022-039-040-504-511-512-261900-
SOUTHWEST INTERIOR

CITY           SKY/WX    TMP DP  RH WIND       PRES   REMARKS
SHELTON        FOG       37  36  96 N3        30.36R VSB 1
6HR MIN TEMP:  37; 6HR MAX TEMP:  38;

OLYMPIA        CLOUDY    38  36  92 SE3       30.38R
6HR MIN TEMP:  37; 6HR MAX TEMP:  38;

CHEHALIS       MOCLDY    41  39  93 VRB5      30.38R
KELSO          CLOUDY    45  39  81 SE5       30.41R
6HR MIN TEMP:  41; 6HR MAX TEMP:  45;

VANCOUVER      CLOUDY    44  41  89 E3        30.38R
6HR MIN TEMP:  40; 6HR MAX TEMP:  44;

SCAPPOOSE, OR  CLOUDY    44  41  89 CALM      30.38R
6HR MIN TEMP:  42; 6HR MAX TEMP:  44;

PORTLAND, OR   CLOUDY    44  42  93 E5        30.39R
6HR MIN TEMP:  40; 6HR MAX TEMP:  44; 6HR PCP: TRACE;

$$

WAZ021-516-517-261900-
WASHINGTON COAST

CITY           SKY/WX    TMP DP  RH WIND       PRES   REMARKS
FORKS          CLOUDY    43  43 100 E3        30.34R
6HR MIN TEMP:  42; 6HR MAX TEMP:  43; 6HR PCP:  0.05;

HOQUIAM        CLOUDY    41  40  96 NE8       30.36R FOG
6HR MIN TEMP:  40; 6HR MAX TEMP:  41; 6HR PCP:  0.02;

ASTORIA, OR    PTSUNNY   45  42  89 E5        30.35R
6HR MIN TEMP:  42; 6HR MAX TEMP:  45; 6HR PCP: TRACE;

$$

WAZ019-023-024-040-518-519-261900-
CASCADE MOUNTAINS AND COLUMBIA GORGE

CITY           SKY/WX    TMP DP  RH WIND       PRES   REMARKS
TROUTDALE, OR  CLOUDY    45  41  86 CALM      30.38R
6HR MIN TEMP:  37; 6HR MAX TEMP:  45;

THE DALLES, OR FAIR      40  33  76 N5        30.36R
6HR MIN TEMP:  34; 6HR MAX TEMP:  42;

$$

WAZ026-027-041>044-520-521-261900-
EAST SLOPES

CITY           SKY/WX    TMP DP  RH WIND       PRES   REMARKS
OMAK           FAIR      30  23  75 CALM      30.31R
6HR MIN TEMP:  18; 6HR MAX TEMP:  30;

WENATCHEE      FAIR      33  24  69 NW5       30.31R
6HR MIN TEMP:  28; 6HR MAX TEMP:  33;

ELLENSBURG     FAIR      35  24  64 SE5       30.28R
6HR MIN TEMP:  24; 6HR MAX TEMP:  35;

YAKIMA         FAIR      34  24  67 CALM      30.32R
6HR MIN TEMP:  21; 6HR MAX TEMP:  34;

$$

WAZ028-034-035-261900-
COLUMBIA BASIN

CITY           SKY/WX    TMP DP  RH WIND       PRES   REMARKS
EPHRATA        FAIR      39  23  52 NW5       30.29R
6HR MIN TEMP:  28; 6HR MAX TEMP:  39;

MOSES LAKE     FAIR      32  26  78 S3        30.31R
6HR MIN TEMP:  23; 6HR MAX TEMP:  32;

PASCO          FAIR      34  32  92 CALM      30.36R
6HR MIN TEMP:  23; 6HR MAX TEMP:  34;

HERMISTON, OR  FAIR      35  31  85 CALM      30.35R
6HR MIN TEMP:  23; 6HR MAX TEMP:  35;

$$

WAZ036>038-261900-
NORTHEAST WASHINGTON

CITY           SKY/WX    TMP DP  RH WIND       PRES   REMARKS
SPOKANE GEIGER FAIR      24  22  91 CALM      30.23R
6HR MIN TEMP:  20; 6HR MAX TEMP:  27;

SPOKANE FELTS  CLOUDY    25  23  92 CALM      30.27R FOG
6HR MIN TEMP:  25; 6HR MAX TEMP:  26;

FAIRCHILD AFB  FAIR      30  25  81 N1        30.23R
6HR MIN TEMP:  21; 6HR MAX TEMP:  30; 6HR PCP: TRACE;

COEURDALENE,ID CLOUDY    27  19  74 N5        30.23R
6HR MIN TEMP:  25; 6HR MAX TEMP:  27;

DEER PARK      CLOUDY    25  24  96 CALM      30.25R FOG
6HR MIN TEMP:  24; 6HR MAX TEMP:  26;

$$

WAZ029>033-261900-
SOUTHEAST WASHINGTON

CITY           SKY/WX    TMP DP  RH WIND       PRES   REMARKS
PULLMAN        CLOUDY    30  27  88 W10       30.25R WCI  21
6HR MIN TEMP:  27; 6HR MAX TEMP:  31;

LEWISTON, ID   PTSUNNY   36  30  79 S5        30.28R
6HR MIN TEMP:  32; 6HR MAX TEMP:  36;

WALLA WALLA    FAIR      39  31  72 S12       30.32R
6HR MIN TEMP:  33; 6HR MAX TEMP:  39;

PENDLETON, OR  FAIR      34  28  79 SE5       30.31R
6HR MIN TEMP:  29; 6HR MAX TEMP:  34;

$$


USA.gov is the U.S. government's official web portal to all federal, state and local government web resources and services.